This is the latest recevied weather packets stored in our database for station/object VK2HIM-1. If no packets are shown the sender has not sent any weather packets the latest 10 day(s).
| Time | Temp. | Humidity | Pressure | Rain* | Wind** | Luminosity | Snow |
|---|---|---|---|---|---|---|---|
| 1788156004 | 67° F | 74% | 771.4 mmHg | 0 in | - | 269 W/m² | - |
| 1788155104 | 67° F | 74% | 771.4 mmHg | 0 in | - | 320 W/m² | - |
| 1788154204 | 68° F | 74% | 771.6 mmHg | 0 in | - | 339 W/m² | - |
| 1788153304 | 68° F | 73% | 771.6 mmHg | 0 in | - | 410 W/m² | - |
| 1788152403 | 69° F | 73% | 771.7 mmHg | 0 in | - | 455 W/m² | - |
| 1788151504 | 69° F | 73% | 771.6 mmHg | 0 in | - | 497 W/m² | - |
| 1788150604 | 69° F | 74% | 771.7 mmHg | 0 in | - | 534 W/m² | - |
| 1788149704 | 68° F | 74% | 771.8 mmHg | 0 in | - | 568 W/m² | - |
| 1788148804 | 69° F | 73% | 771.9 mmHg | 0 in | - | 599 W/m² | - |
| 1788147904 | 70° F | 71% | 771.9 mmHg | 0 in | - | 629 W/m² | - |
| 1788147004 | 71° F | 65% | 772 mmHg | 0 in | - | 643 W/m² | - |
| 1788146104 | 71° F | 64% | 772 mmHg | 0 in | - | 564 W/m² | - |
| 1788145204 | 72° F | 67% | 772.2 mmHg | 0 in | - | 550 W/m² | - |
| 1788144304 | 71° F | 70% | 772.3 mmHg | 0 in | - | 666 W/m² | - |
| 1788143404 | 71° F | 72% | 772.5 mmHg | 0 in | - | 715 W/m² | - |
| 1788142504 | 71° F | 72% | 772.5 mmHg | 0 in | - | 724 W/m² | - |
| 1788141604 | 70° F | 74% | 772.7 mmHg | 0 in | - | 722 W/m² | - |
| 1788140703 | 69° F | 76% | 772.9 mmHg | 0 in | - | 722 W/m² | - |
| 1788139804 | 70° F | 74% | 773.1 mmHg | 0 in | - | 715 W/m² | - |
| 1788138903 | 70° F | 73% | 773.2 mmHg | 0 in | - | 712 W/m² | - |
| 1788138003 | 69° F | 72% | 773.3 mmHg | 0 in | - | 694 W/m² | - |
| 1788137103 | 69° F | 73% | 773.4 mmHg | 0 in | - | 675 W/m² | - |
| 1788136204 | 67° F | 76% | 773.5 mmHg | 0 in | - | 654 W/m² | - |
| 1788135303 | 66° F | 72% | 773.5 mmHg | 0 in | - | 629 W/m² | - |
| 1788134404 | 67° F | 75% | 773.6 mmHg | 0 in | - | 601 W/m² | - |
* Rain latest hour (hover to see other rain measurements)
** Current wind speed in m/s (hover to see current wind gust speed)